| time (UTC) | temp F | wind direction | speed MPH | gust MPH | rain 1hr in | rain 24hr in | rain mn in | humidity % | barometer mb |
| 20260903104942 | 56 | 215 | 13.0 | 10.0 | 0.00 | 0.00 | 0.00 | 48 | |
| 20260903104445 | 56 | 224 | 10.0 | 13.0 | 0.00 | 0.00 | 0.00 | 48 | |
| 20260903103947 | 56 | 231 | 10.0 | 4.0 | 0.00 | 0.00 | 0.00 | 47 | |
| 20260903103446 | 56 | 205 | 5.0 | 6.0 | 0.00 | 0.00 | 0.00 | 47 | |
| 20260903102948 | 56 | 233 | 8.0 | 10.0 | 0.00 | 0.00 | 0.00 | 46 | |
| 20260903102524 | 56 | 233 | 11.0 | 6.0 | 0.00 | 0.00 | 0.00 | 46 | |
| 20260903102451 | 56 | 233 | 11.0 | 6.0 | 0.00 | 0.00 | 0.00 | 46 | |
| 20260903101953 | 56 | 218 | 8.0 | 11.0 | 0.00 | 0.00 | 0.00 | 45 | |
| 20260903101455 | 56 | 210 | 5.0 | 12.0 | 0.00 | 0.00 | 0.00 | 44 | |
| 20260903100957 | 56 | 210 | 8.0 | 10.0 | 0.00 | 0.00 | 0.00 | 43 | |
| 20260903100456 | 56 | 212 | 7.0 | 9.0 | 0.00 | 0.00 | 0.00 | 42 | |
| 20260903095959 | 57 | 215 | 5.0 | 8.0 | 0.00 | 0.00 | 0.00 | 42 | |
| 20260903095501 | 57 | 214 | 9.0 | 11.0 | 0.00 | 0.00 | 0.00 | 41 | |
| 20260903095004 | 57 | 219 | 9.0 | 7.0 | 0.00 | 0.00 | 0.00 | 41 | |
| 20260903094506 | 57 | 233 | 9.0 | 6.0 | 0.00 | 0.00 | 0.00 | 40 | |
| 20260903094008 | 57 | 249 | 10.0 | 8.0 | 0.00 | 0.00 | 0.00 | 40 | |
| 20260903093507 | 57 | 214 | 8.0 | 3.0 | 0.00 | 0.00 | 0.00 | 40 | |
| 20260903093009 | 57 | 229 | 9.0 | 13.0 | 0.00 | 0.00 | 0.00 | 40 | |
| 20260903092511 | 57 | 214 | 8.0 | 7.0 | 0.00 | 0.00 | 0.00 | 39 | |
| 20260903092046 | 58 | 218 | 9.0 | 12.0 | 0.00 | 0.00 | 0.00 | 39 | |
| 20260903092014 | 58 | 218 | 9.0 | 12.0 | 0.00 | 0.00 | 0.00 | 39 | |
| 20260903091516 | 58 | 238 | 9.0 | 8.0 | 0.00 | 0.00 | 0.00 | 39 | |
| 20260903091019 | 58 | 249 | 10.0 | 8.0 | 0.00 | 0.00 | 0.00 | 38 | |
| 20260903090517 | 58 | 217 | 9.0 | 9.0 | 0.00 | 0.00 | 0.00 | 38 | |
| 20260903090020 | 58 | 221 | 8.0 | 7.0 | 0.00 | 0.00 | 0.00 | 37 | |
| 20260903085522 | 58 | 201 | 8.0 | 8.0 | 0.00 | 0.00 | 0.00 | 37 | |
| 20260903085024 | 58 | 242 | 7.0 | 6.0 | 0.00 | 0.00 | 0.00 | 37 | |
| 20260903084527 | 58 | 195 | 0.0 | 10.0 | 0.00 | 0.00 | 0.00 | 36 | |
| 20260903084029 | 58 | 228 | 1.0 | 0.0 | 0.00 | 0.00 | 0.00 | 36 | |
| 20260903083528 | 58 | 198 | 0.0 | 0.0 | 0.00 | 0.00 | 0.00 | 36 | |
| 20260903083030 | 58 | 198 | 1.0 | 2.0 | 0.00 | 0.00 | 0.00 | 35 | |
| 20260903082532 | 58 | 217 | 0.0 | 3.0 | 0.00 | 0.00 | 0.00 | 35 | |
| 20260903082037 | 58 | 273 | 1.0 | 3.0 | 0.00 | 0.00 | 0.00 | 34 | |
| 20260903082035 | 58 | 198 | 0.0 | 0.0 | 0.00 | 0.00 | 0.00 | 34 | |
| 20260903081537 | 58 | 273 | 1.0 | 3.0 | 0.00 | 0.00 | 0.00 | 34 | |
| 20260903081141 | 58 | 260 | 0.0 | 0.0 | 0.00 | 0.00 | 0.00 | 34 | |
| 20260903081039 | 58 | 260 | 0.0 | 0.0 | 0.00 | 0.00 | 0.00 | 34 | |
| 20260903080538 | 58 | 226 | 2.0 | 0.0 | 0.00 | 0.00 | 0.00 | 34 | |
| 20260903080231 | 58 | 222 | 0.0 | 0.0 | 0.00 | 0.00 | 0.00 | 34 | |
| 20260903080041 | 58 | 222 | 0.0 | 0.0 | 0.00 | 0.00 | 0.00 | 34 | |
| 20260903075543 | 58 | 240 | 1.0 | 3.0 | 0.00 | 0.00 | 0.00 | 35 | |
| 20260903075045 | 58 | 249 | 1.0 | 3.0 | 0.00 | 0.00 | 0.00 | 35 | |
| 20260903074547 | 58 | 153 | 0.0 | 0.0 | 0.00 | 0.00 | 0.00 | 35 | |
| 20260903074448 | 59 | 249 | 0.0 | 0.0 | 0.00 | 0.00 | 0.00 | 34 | |
| 20260903074050 | 59 | 249 | 0.0 | 0.0 | 0.00 | 0.00 | 0.00 | 34 | |
| 20260903073549 | 59 | 193 | 1.0 | 0.0 | 0.00 | 0.00 | 0.00 | 33 | |
| 20260903072553 | 58 | 219 | 4.0 | 5.0 | 0.00 | 0.00 | 0.00 | 31 | |
| 20260903072056 | 58 | 193 | 1.0 | 0.0 | 0.00 | 0.00 | 0.00 | 33 | |
| 20260903071558 | 58 | 207 | 3.0 | 5.0 | 0.00 | 0.00 | 0.00 | 34 | |
| 20260903071100 | 57 | 262 | 3.0 | 3.0 | 0.00 | 0.00 | 0.00 | 36 | |
| 20260903070559 | 57 | 146 | 1.0 | 1.0 | 0.00 | 0.00 | 0.00 | 38 | |
| 20260903065604 | 57 | 269 | 0.0 | 0.0 | 0.00 | 0.00 | 0.00 | 42 | |
| 20260903065106 | 57 | 269 | 0.0 | 0.0 | 0.00 | 0.00 | 0.00 | 42 | |
| 20260903064608 | 57 | 201 | 0.0 | 0.0 | 0.00 | 0.00 | 0.00 | 43 | |
| 20260903064111 | 57 | 201 | 0.0 | 0.0 | 0.00 | 0.00 | 0.00 | 43 | |
| 20260903063610 | 57 | 222 | 0.0 | 0.0 | 0.00 | 0.00 | 0.00 | 45 | |
| 20260903063112 | 57 | 222 | 0.0 | 0.0 | 0.00 | 0.00 | 0.00 | 45 | |
| 20260903062614 | 57 | 222 | 0.0 | 0.0 | 0.00 | 0.00 | 0.00 | 46 | |
| 20260903062116 | 57 | 191 | 1.0 | 0.0 | 0.00 | 0.00 | 0.00 | 47 | |
| 20260903061619 | 57 | 226 | 0.0 | 0.0 | 0.00 | 0.00 | 0.00 | 47 | |
| 20260903061121 | 57 | 226 | 0.0 | 0.0 | 0.00 | 0.00 | 0.00 | 46 | |
| 20260903060620 | 57 | 226 | 0.0 | 0.0 | 0.00 | 0.00 | 0.00 | 45 | |
| 20260903060122 | 57 | 226 | 0.0 | 0.0 | 0.00 | 0.00 | 0.00 | 45 | |
| 20260903055127 | 58 | 215 | 0.0 | 0.0 | 0.00 | 0.00 | 0.00 | 42 | |
| 20260903054629 | 58 | 215 | 0.0 | 0.0 | 0.00 | 0.00 | 0.00 | 40 | |
| 20260903054131 | 58 | 215 | 0.0 | 0.0 | 0.00 | 0.00 | 0.00 | 40 | |
| 20260903053630 | 58 | 215 | 0.0 | 0.0 | 0.00 | 0.00 | 0.00 | 40 | |
| 20260903052636 | 59 | 215 | 0.0 | 0.0 | 0.00 | 0.00 | 0.00 | 38 | |
| 20260903052137 | 59 | 215 | 0.0 | 0.0 | 0.00 | 0.00 | 0.00 | 36 | |
| 20260903051640 | 60 | 215 | 0.0 | 0.0 | 0.00 | 0.00 | 0.00 | 34 | |
| 20260903051142 | 60 | 215 | 0.0 | 0.0 | 0.00 | 0.00 | 0.00 | 32 | |
| 20260903050641 | 61 | 215 | 0.0 | 0.0 | 0.00 | 0.00 | 0.00 | 30 | |
| 20260903050143 | 61 | 215 | 0.0 | 0.0 | 0.00 | 0.00 | 0.00 | 27 | |
| 20260903045645 | 61 | 215 | 0.0 | 0.0 | 0.00 | 0.00 | 0.00 | 25 | |
| 20260903045148 | 61 | 215 | 0.0 | 0.0 | 0.00 | 0.00 | 0.00 | 24 | |
| 20260903044650 | 62 | 215 | 0.0 | 0.0 | 0.00 | 0.00 | 0.00 | 24 | |
| 20260903044152 | 62 | 215 | 0.0 | 0.0 | 0.00 | 0.00 | 0.00 | 24 | |
| 20260903043752 | 62 | 215 | 0.0 | 0.0 | 0.00 | 0.00 | 0.00 | 24 | |
| 20260903043651 | 62 | 215 | 0.0 | 0.0 | 0.00 | 0.00 | 0.00 | 24 | |
| 20260903043154 | 62 | 215 | 0.0 | 0.0 | 0.00 | 0.00 | 0.00 | 24 | |
| 20260903042656 | 62 | 215 | 0.0 | 0.0 | 0.00 | 0.00 | 0.00 | 23 | |
| 20260903042158 | 62 | 215 | 0.0 | 0.0 | 0.00 | 0.00 | 0.00 | 22 | |
| 20260903041700 | 62 | 215 | 0.0 | 0.0 | 0.00 | 0.00 | 0.00 | 19 | |
| 20260903041203 | 62 | 215 | 0.0 | 0.0 | 0.00 | 0.00 | 0.00 | 18 | |
| 20260903040702 | 63 | 215 | 0.0 | 0.0 | 0.00 | 0.00 | 0.00 | 18 | |
| 20260903040205 | 63 | 215 | 0.0 | 0.0 | 0.00 | 0.00 | 0.00 | 17 | |
| 20260903035706 | 63 | 215 | 0.0 | 0.0 | 0.00 | 0.00 | 0.00 | 15 | |
| 20260903035208 | 64 | 215 | 0.0 | 0.0 | 0.00 | 0.00 | 0.00 | 14 | |
| 20260903034711 | 64 | 215 | 0.0 | 0.0 | 0.00 | 0.00 | 0.00 | 13 | |
| 20260903034213 | 64 | 215 | 0.0 | 0.0 | 0.00 | 0.00 | 0.00 | 12 | |
| 20260903033712 | 65 | 215 | 0.0 | 0.0 | 0.00 | 0.00 | 0.00 | 11 | |
| 20260903033214 | 65 | 215 | 0.0 | 0.0 | 0.00 | 0.00 | 0.00 | 11 | |
| 20260903032717 | 65 | 215 | 0.0 | 0.0 | 0.00 | 0.00 | 0.00 | 9 | |
| 20260903032219 | 66 | 215 | 0.0 | 0.0 | 0.00 | 0.00 | 0.00 | 7 | |
| 20260903031721 | 66 | 215 | 0.0 | 0.0 | 0.00 | 0.00 | 0.00 | 6 | |
| 20260903031223 | 66 | 215 | 0.0 | 0.0 | 0.00 | 0.00 | 0.00 | 5 | |
| 20260903030723 | 67 | 215 | 0.0 | 0.0 | 0.00 | 0.00 | 0.00 | 5 | |
| 20260903030225 | 67 | 215 | 0.0 | 0.0 | 0.00 | 0.00 | 0.00 | 5 | |
| 20260903025727 | 67 | 215 | 0.0 | 0.0 | 0.00 | 0.00 | 0.00 | 5 | |
| 20260903025229 | 68 | 215 | 0.0 | 0.0 | 0.00 | 0.00 | 0.00 | 5 | |
| 20260903024234 | 68 | 215 | 0.0 | 0.0 | 0.00 | 0.00 | 0.00 | 5 | |
| 20260903023733 | 68 | 215 | 0.0 | 0.0 | 0.00 | 0.00 | 0.00 | 5 | |
| 20260903023235 | 68 | 215 | 0.0 | 0.0 | 0.00 | 0.00 | 0.00 | 5 | |
| 20260903022737 | 69 | 215 | 0.0 | 0.0 | 0.00 | 0.00 | 0.00 | 5 | |
| 20260903022239 | 70 | 215 | 0.0 | 0.0 | 0.00 | 0.00 | 0.00 | 4 | |
| 20260903021742 | 70 | 215 | 0.0 | 0.0 | 0.00 | 0.00 | 0.00 | 4 | |
| 20260903021244 | 71 | 215 | 0.0 | 0.0 | 0.00 | 0.00 | 0.00 | 4 | |
| 20260903020743 | 71 | 215 | 0.0 | 0.0 | 0.00 | 0.00 | 0.00 | 4 | |
| 20260903020245 | 71 | 215 | 0.0 | 0.0 | 0.00 | 0.00 | 0.00 | 3 | |
| 20260903015748 | 72 | 215 | 0.0 | 0.0 | 0.00 | 0.00 | 0.00 | 3 | |
| 20260903015250 | 72 | 215 | 0.0 | 0.0 | 0.00 | 0.00 | 0.00 | 4 | |
| 20260903014752 | 72 | 184 | 0.0 | 0.0 | 0.00 | 0.00 | 0.00 | 4 | |
| 20260903014254 | 72 | 184 | 0.0 | 0.0 | 0.00 | 0.00 | 0.00 | 4 | |
| 20260903013753 | 73 | 184 | 0.0 | 0.0 | 0.00 | 0.00 | 0.00 | 4 | |
| 20260903013256 | 73 | 204 | 10.0 | 14.0 | 0.00 | 0.00 | 0.00 | 4 | |
| 20260903012758 | 73 | 257 | 0.0 | 0.0 | 0.00 | 0.00 | 0.00 | 4 | |
| 20260903012300 | 74 | 257 | 0.0 | 0.0 | 0.00 | 0.00 | 0.00 | 4 | |
| 20260903011802 | 74 | 257 | 0.0 | 0.0 | 0.00 | 0.00 | 0.00 | 5 | |
| 20260903011305 | 74 | 187 | 0.0 | 0.0 | 0.00 | 0.00 | 0.00 | 5 | |
| 20260903010804 | 74 | 187 | 0.0 | 0.0 | 0.00 | 0.00 | 0.00 | 5 | |
| 20260903010306 | 74 | 187 | 0.0 | 0.0 | 0.00 | 0.00 | 0.00 | 5 | |
| 20260903005808 | 74 | 165 | 3.0 | 5.0 | 0.00 | 0.00 | 0.00 | 5 | |
| 20260903005310 | 74 | 198 | 10.0 | 0.0 | 0.00 | 0.00 | 0.00 | 5 | |
| 20260903004813 | 75 | 224 | 0.0 | 0.0 | 0.00 | 0.00 | 0.00 | 6 | |
| 20260903004315 | 75 | 204 | 1.0 | 0.0 | 0.00 | 0.00 | 0.00 | 6 | |
| 20260903003814 | 75 | 205 | 1.0 | 0.0 | 0.00 | 0.00 | 0.00 | 6 | |
| 20260903003317 | 75 | 219 | 0.0 | 0.0 | 0.00 | 0.00 | 0.00 | 6 | |
| 20260903002937 | 75 | 200 | 1.0 | 6.0 | 0.00 | 0.00 | 0.00 | 6 | |
| 20260903002819 | 75 | 200 | 1.0 | 6.0 | 0.00 | 0.00 | 0.00 | 6 | |
| 20260903002321 | 75 | 212 | 3.0 | 14.0 | 0.00 | 0.00 | 0.00 | 7 | |
| 20260903001823 | 75 | 203 | 8.0 | 7.0 | 0.00 | 0.00 | 0.00 | 9 | |
| 20260903001327 | 75 | 204 | 14.0 | 6.0 | 0.00 | 0.00 | 0.00 | 8 | |
| 20260903000824 | 76 | 194 | 4.0 | 8.0 | 0.00 | 0.00 | 0.00 | 8 | |
| 20260903000327 | 76 | 187 | 4.0 | 6.0 | 0.00 | 0.00 | 0.00 | 8 | |
| 20260902235829 | 76 | 194 | 9.0 | 17.0 | 0.00 | 0.00 | 0.00 | 7 | |
| 20260902235331 | 76 | 221 | 5.0 | 0.0 | 0.00 | 0.00 | 0.00 | 6 | |
| 20260902234833 | 76 | 194 | 9.0 | 0.0 | 0.00 | 0.00 | 0.00 | 7 | |
| 20260902233835 | 76 | 179 | 3.0 | 0.0 | 0.00 | 0.00 | 0.00 | 7 | |
| 20260902233337 | 77 | 187 | 14.0 | 9.0 | 0.00 | 0.00 | 0.00 | 6 | |
| 20260902232839 | 77 | 203 | 4.0 | 3.0 | 0.00 | 0.00 | 0.00 | 6 | |
| 20260902232341 | 77 | 200 | 5.0 | 0.0 | 0.00 | 0.00 | 0.00 | 6 | |
| 20260902231844 | 77 | 212 | 3.0 | 0.0 | 0.00 | 0.00 | 0.00 | 6 | |
| 20260902231346 | 77 | 214 | 2.0 | 0.0 | 0.00 | 0.00 | 0.00 | 6 | |
| 20260902230845 | 77 | 195 | 10.0 | 14.0 | 0.00 | 0.00 | 0.00 | 6 | |
| 20260902230347 | 78 | 194 | 2.0 | 0.0 | 0.00 | 0.00 | 0.00 | 6 | |
| 20260902225849 | 78 | 191 | 9.0 | 8.0 | 0.00 | 0.00 | 0.00 | 6 | |
| 20260902225352 | 78 | 193 | 11.0 | 9.0 | 0.00 | 0.00 | 0.00 | 6 | |
| 20260902224854 | 78 | 187 | 0.0 | 0.0 | 0.00 | 0.00 | 0.00 | 6 | |
| 20260902224356 | 78 | 203 | 4.0 | 0.0 | 0.00 | 0.00 | 0.00 | 5 | |
| 20260902223855 | 78 | 194 | 4.0 | 16.0 | 0.00 | 0.00 | 0.00 | 5 | |
| 20260902223358 | 78 | 193 | 4.0 | 3.0 | 0.00 | 0.00 | 0.00 | 6 | |
| 20260902222900 | 79 | 219 | 2.0 | 0.0 | 0.00 | 0.00 | 0.00 | 5 | |
| 20260902222402 | 79 | 177 | 2.0 | 6.0 | 0.00 | 0.00 | 0.00 | 5 | |
| 20260902221904 | 79 | 214 | 8.0 | 9.0 | 0.00 | 0.00 | 0.00 | 5 | |
| 20260902221406 | 79 | 177 | 1.0 | 0.0 | 0.00 | 0.00 | 0.00 | 5 | |
| 20260902220906 | 80 | 193 | 4.0 | 6.0 | 0.00 | 0.00 | 0.00 | 4 | |
| 20260902220408 | 80 | 218 | 3.0 | 6.0 | 0.00 | 0.00 | 0.00 | 5 | |
| 20260902215910 | 80 | 194 | 4.0 | 0.0 | 0.00 | 0.00 | 0.00 | 5 | |
| 20260902215412 | 80 | 204 | 4.0 | 0.0 | 0.00 | 0.00 | 0.00 | 4 | |
| 20260902214915 | 80 | 180 | 1.0 | 0.0 | 0.00 | 0.00 | 0.00 | 4 | |
| 20260902214417 | 80 | 203 | 1.0 | 0.0 | 0.00 | 0.00 | 0.00 | 4 | |
| 20260902213916 | 80 | 218 | 1.0 | 0.0 | 0.00 | 0.00 | 0.00 | 4 | |
| 20260902213418 | 80 | 173 | 1.0 | 8.0 | 0.00 | 0.00 | 0.00 | 4 | |
| 20260902212920 | 80 | 208 | 5.0 | 0.0 | 0.00 | 0.00 | 0.00 | 4 | |
| 20260902212423 | 80 | 228 | 0.0 | 0.0 | 0.00 | 0.00 | 0.00 | 4 | |
| 20260902211925 | 80 | 201 | 4.0 | 0.0 | 0.00 | 0.00 | 0.00 | 4 | |
| 20260902211427 | 80 | 233 | 2.0 | 5.0 | 0.00 | 0.00 | 0.00 | 4 | |
| 20260902210926 | 80 | 194 | 0.0 | 0.0 | 0.00 | 0.00 | 0.00 | 4 | |
| 20260902210428 | 80 | 191 | 0.0 | 0.0 | 0.00 | 0.00 | 0.00 | 4 | |
| 20260902205931 | 80 | 233 | 0.0 | 0.0 | 0.00 | 0.00 | 0.00 | 4 | |
| 20260902205433 | 80 | 174 | 4.0 | 2.0 | 0.00 | 0.00 | 0.00 | 4 | |
| 20260902204935 | 80 | 195 | 3.0 | 7.0 | 0.00 | 0.00 | 0.00 | 4 | |
| 20260902204438 | 79 | 217 | 0.0 | 4.0 | 0.00 | 0.00 | 0.00 | 4 | |
| 20260902203936 | 79 | 198 | 1.0 | 0.0 | 0.00 | 0.00 | 0.00 | 4 | |
| 20260902203439 | 79 | 239 | 2.0 | 9.0 | 0.00 | 0.00 | 0.00 | 4 | |
| 20260902202941 | 79 | 205 | 2.0 | 4.0 | 0.00 | 0.00 | 0.00 | 4 | |
| 20260902202443 | 79 | 165 | 0.0 | 0.0 | 0.00 | 0.00 | 0.00 | 5 | |
| 20260902201945 | 79 | 181 | 3.0 | 0.0 | 0.00 | 0.00 | 0.00 | 5 | |
| 20260902201448 | 79 | 233 | 1.0 | 5.0 | 0.00 | 0.00 | 0.00 | 4 | |
| 20260902200947 | 79 | 250 | 7.0 | 0.0 | 0.00 | 0.00 | 0.00 | 4 | |
| 20260902200449 | 78 | 255 | 0.0 | 0.0 | 0.00 | 0.00 | 0.00 | 4 | |
| 20260902195951 | 78 | 166 | 0.0 | 0.0 | 0.00 | 0.00 | 0.00 | 5 | |
| 20260902195454 | 78 | 176 | 0.0 | 0.0 | 0.00 | 0.00 | 0.00 | 5 | |
| 20260902194956 | 77 | 203 | 1.0 | 0.0 | 0.00 | 0.00 | 0.00 | 4 | |
| 20260902194458 | 77 | 200 | 1.0 | 0.0 | 0.00 | 0.00 | 0.00 | 5 | |
| 20260902193957 | 77 | 210 | 7.0 | 7.0 | 0.00 | 0.00 | 0.00 | 4 | |
| 20260902193459 | 77 | 191 | 5.0 | 0.0 | 0.00 | 0.00 | 0.00 | 5 | |
| 20260902193002 | 77 | 205 | 4.0 | 8.0 | 0.00 | 0.00 | 0.00 | 4 | |
| 20260902192505 | 77 | 170 | 0.0 | 0.0 | 0.00 | 0.00 | 0.00 | 5 | |
| 20260902192006 | 77 | 176 | 2.0 | 0.0 | 0.00 | 0.00 | 0.00 | 5 | |
| 20260902191509 | 77 | 228 | 1.0 | 0.0 | 0.00 | 0.00 | 0.00 | 5 | |
| 20260902191008 | 77 | 228 | 0.0 | 0.0 | 0.00 | 0.00 | 0.00 | 4 | |
| 20260902190510 | 77 | 191 | 3.0 | 9.0 | 0.00 | 0.00 | 0.00 | 4 | |
| 20260902190012 | 77 | 191 | 0.0 | 0.0 | 0.00 | 0.00 | 0.00 | 4 | |
| 20260902185514 | 76 | 183 | 2.0 | 0.0 | 0.00 | 0.00 | 0.00 | 4 | |
| 20260902185017 | 76 | 207 | 10.0 | 3.0 | 0.00 | 0.00 | 0.00 | 4 | |
| 20260902184623 | 76 | 205 | 3.0 | 0.0 | 0.00 | 0.00 | 0.00 | 4 | |
| 20260902184519 | 76 | 205 | 3.0 | 0.0 | 0.00 | 0.00 | 0.00 | 4 | |
| 20260902184018 | 76 | 225 | 3.0 | 7.0 | 0.00 | 0.00 | 0.00 | 4 | |
| 20260902183520 | 76 | 231 | 1.0 | 0.0 | 0.00 | 0.00 | 0.00 | 4 | |
| 20260902183023 | 76 | 214 | 4.0 | 3.0 | 0.00 | 0.00 | 0.00 | 4 | |
| 20260902182720 | 76 | 215 | 4.0 | 8.0 | 0.00 | 0.00 | 0.00 | 4 | |
| 20260902182525 | 76 | 215 | 4.0 | 8.0 | 0.00 | 0.00 | 0.00 | 4 | |
| 20260902182027 | 75 | 233 | 4.0 | 7.0 | 0.00 | 0.00 | 0.00 | 3 | |
| 20260902181529 | 75 | 204 | 2.0 | 0.0 | 0.00 | 0.00 | 0.00 | 4 | |
| 20260902181029 | 75 | 207 | 12.0 | 12.0 | 0.00 | 0.00 | 0.00 | 4 | |
| 20260902180531 | 75 | 193 | 16.0 | 12.0 | 0.00 | 0.00 | 0.00 | 4 | |
| 20260902180033 | 75 | 193 | 9.0 | 10.0 | 0.00 | 0.00 | 0.00 | 4 | |
| 20260902175535 | 75 | 191 | 2.0 | 18.0 | 0.00 | 0.00 | 0.00 | 4 | |
| 20260902175038 | 74 | 153 | 3.0 | 2.0 | 0.00 | 0.00 | 0.00 | 4 | |
| 20260902174540 | 75 | 169 | 1.0 | 4.0 | 0.00 | 0.00 | 0.00 | 5 | |
| 20260902174039 | 75 | 80 | 6.0 | 4.0 | 0.00 | 0.00 | 0.00 | 5 | |
| 20260902173541 | 75 | 219 | 1.0 | 12.0 | 0.00 | 0.00 | 0.00 | 5 | |
| 20260902173044 | 75 | 204 | 6.0 | 12.0 | 0.00 | 0.00 | 0.00 | 5 | |
| 20260902172546 | 75 | 203 | 10.0 | 6.0 | 0.00 | 0.00 | 0.00 | 5 | |
| 20260902172048 | 75 | 224 | 6.0 | 6.0 | 0.00 | 0.00 | 0.00 | 5 | |
| 20260902171645 | 75 | 205 | 4.0 | 10.0 | 0.00 | 0.00 | 0.00 | 5 | |
| 20260902171550 | 75 | 205 | 4.0 | 10.0 | 0.00 | 0.00 | 0.00 | 5 | |
| 20260902170910 | 74 | 205 | 12.0 | 7.0 | 0.00 | 0.00 | 0.00 | 5 | |
| 20260902170858 | 74 | 221 | 5.0 | 7.0 | 0.00 | 0.00 | 0.00 | 4 | |
| 20260902170552 | 74 | 221 | 5.0 | 7.0 | 0.00 | 0.00 | 0.00 | 4 | |
| 20260902170054 | 74 | 205 | 12.0 | 7.0 | 0.00 | 0.00 | 0.00 | 5 | |
| 20260902165556 | 74 | 170 | 7.0 | 15.0 | 0.00 | 0.00 | 0.00 | 5 | |
| 20260902165059 | 74 | 215 | 3.0 | 15.0 | 0.00 | 0.00 | 0.00 | 5 | |
| 20260902164601 | 74 | 211 | 11.0 | 15.0 | 0.00 | 0.00 | 0.00 | 5 | |
| 20260902164100 | 73 | 205 | 8.0 | 10.0 | 0.00 | 0.00 | 0.00 | 5 | |
| 20260902163105 | 73 | 257 | 0.0 | 0.0 | 0.00 | 0.00 | 0.00 | 4 | |
| 20260902162902 | 73 | 233 | 0.0 | 4.0 | 0.00 | 0.00 | 0.00 | 5 | |
| 20260902162607 | 73 | 205 | 0.0 | 0.0 | 0.00 | 0.00 | 0.00 | 5 | |
| 20260902162109 | 73 | 233 | 0.0 | 4.0 | 0.00 | 0.00 | 0.00 | 5 | |
| 20260902161612 | 72 | 235 | 0.0 | 0.0 | 0.00 | 0.00 | 0.00 | 5 | |
| 20260902161111 | 72 | 235 | 0.0 | 0.0 | 0.00 | 0.00 | 0.00 | 5 | |
| 20260902160115 | 71 | 235 | 0.0 | 0.0 | 0.00 | 0.00 | 0.00 | 5 | |
| 20260902155618 | 71 | 235 | 0.0 | 0.0 | 0.00 | 0.00 | 0.00 | 6 | |
| 20260902155506 | 70 | 235 | 0.0 | 0.0 | 0.00 | 0.00 | 0.00 | 6 | |
| 20260902155120 | 70 | 235 | 0.0 | 0.0 | 0.00 | 0.00 | 0.00 | 6 | |
| 20260902154800 | 69 | 231 | 0.0 | 0.0 | 0.00 | 0.00 | 0.00 | 6 | |
| 20260902154750 | 70 | 235 | 0.0 | 0.0 | 0.00 | 0.00 | 0.00 | 6 | |
| 20260902154622 | 70 | 235 | 0.0 | 0.0 | 0.00 | 0.00 | 0.00 | 6 | |
| 20260902154121 | 69 | 231 | 0.0 | 0.0 | 0.00 | 0.00 | 0.00 | 6 | |
| 20260902152628 | 67 | 231 | 0.0 | 0.0 | 0.00 | 0.00 | 0.00 | 8 | |
| 20260902152130 | 67 | 231 | 0.0 | 0.0 | 0.00 | 0.00 | 0.00 | 9 | |
| 20260902151633 | 66 | 231 | 0.0 | 0.0 | 0.00 | 0.00 | 0.00 | 10 | |
| 20260902151131 | 65 | 231 | 0.0 | 0.0 | 0.00 | 0.00 | 0.00 | 11 | |
| 20260902150633 | 65 | 231 | 0.0 | 0.0 | 0.00 | 0.00 | 0.00 | 12 | |
| 20260902150135 | 64 | 231 | 0.0 | 0.0 | 0.00 | 0.00 | 0.00 | 13 | |
| 20260902145638 | 63 | 231 | 0.0 | 0.0 | 0.00 | 0.00 | 0.00 | 14 | |
| 20260902145140 | 62 | 231 | 0.0 | 0.0 | 0.00 | 0.00 | 0.00 | 15 | |
| 20260902144642 | 62 | 231 | 0.0 | 0.0 | 0.00 | 0.00 | 0.00 | 15 | |
| 20260902144141 | 61 | 231 | 0.0 | 0.0 | 0.00 | 0.00 | 0.00 | 17 | |
| 20260902143644 | 60 | 231 | 0.0 | 0.0 | 0.00 | 0.00 | 0.00 | 19 | |
| 20260902143146 | 60 | 231 | 0.0 | 0.0 | 0.00 | 0.00 | 0.00 | 20 | |
| 20260902142647 | 59 | 231 | 0.0 | 0.0 | 0.00 | 0.00 | 0.00 | 21 | |
| 20260902142150 | 58 | 231 | 0.0 | 0.0 | 0.00 | 0.00 | 0.00 | 22 | |
| 20260902141652 | 58 | 170 | 0.0 | 0.0 | 0.00 | 0.00 | 0.00 | 24 | |
| 20260902141151 | 57 | 170 | 0.0 | 0.0 | 0.00 | 0.00 | 0.00 | 24 | |
| 20260902140653 | 57 | 170 | 0.0 | 0.0 | 0.00 | 0.00 | 0.00 | 24 | |
| 20260902140303 | 57 | 170 | 0.0 | 0.0 | 0.00 | 0.00 | 0.00 | 24 | |
| 20260902140155 | 57 | 170 | 0.0 | 0.0 | 0.00 | 0.00 | 0.00 | 24 | |
| 20260902140142 | 56 | 170 | 0.0 | 0.0 | 0.00 | 0.00 | 0.00 | 24 | |
| 20260902135658 | 56 | 170 | 0.0 | 0.0 | 0.00 | 0.00 | 0.00 | 24 | |
| 20260902135200 | 56 | 170 | 0.0 | 0.0 | 0.00 | 0.00 | 0.00 | 25 | |
| 20260902134703 | 56 | 170 | 0.0 | 0.0 | 0.00 | 0.00 | 0.00 | 25 | |
| 20260902134201 | 56 | 170 | 0.0 | 0.0 | 0.00 | 0.00 | 0.00 | 25 | |
| 20260902133704 | 56 | 207 | 0.0 | 0.0 | 0.00 | 0.00 | 0.00 | 25 | |
| 20260902133206 | 56 | 207 | 1.0 | 0.0 | 0.00 | 0.00 | 0.00 | 25 | |
| 20260902132708 | 56 | 174 | 1.0 | 0.0 | 0.00 | 0.00 | 0.00 | 26 | |
| 20260902132211 | 55 | 166 | 1.0 | 0.0 | 0.00 | 0.00 | 0.00 | 26 | |
| 20260902131713 | 55 | 159 | 0.0 | 0.0 | 0.00 | 0.00 | 0.00 | 26 | |
| 20260902131212 | 55 | 159 | 0.0 | 0.0 | 0.00 | 0.00 | 0.00 | 26 | |
| 20260902130714 | 56 | 221 | 1.0 | 0.0 | 0.00 | 0.00 | 0.00 | 27 | |
| 20260902130217 | 56 | 222 | 0.0 | 0.0 | 0.00 | 0.00 | 0.00 | 27 | |
| 20260902125719 | 56 | 222 | 0.0 | 0.0 | 0.00 | 0.00 | 0.00 | 26 | |
| 20260902125221 | 56 | 188 | 0.0 | 0.0 | 0.00 | 0.00 | 0.00 | 25 | |
| 20260902124723 | 57 | 249 | 0.0 | 0.0 | 0.00 | 0.00 | 0.00 | 22 | |
| 20260902124222 | 57 | 210 | 1.0 | 0.0 | 0.00 | 0.00 | 0.00 | 21 | |
| 20260902123725 | 57 | 98 | 0.0 | 0.0 | 0.00 | 0.00 | 0.00 | 19 | |
| 20260902123227 | 58 | 98 | 0.0 | 0.0 | 0.00 | 0.00 | 0.00 | 17 | |
| 20260902122729 | 59 | 98 | 0.0 | 0.0 | 0.00 | 0.00 | 0.00 | 16 | |
| 20260902122232 | 59 | 98 | 0.0 | 0.0 | 0.00 | 0.00 | 0.00 | 15 | |
| 20260902121735 | 0 | 98 | 0.0 | 0.0 | 0.00 | 0.00 | 0.00 | 15 | |
| 20260902121233 | 60 | 98 | 0.0 | 0.0 | 0.00 | 0.00 | 0.00 | 14 | |
| 20260902120735 | 60 | 179 | 0.0 | 0.0 | 0.00 | 0.00 | 0.00 | 14 | |
| 20260902120238 | 60 | 179 | 3.0 | 0.0 | 0.00 | 0.00 | 0.00 | 14 | |
| 20260902115740 | 60 | 143 | 0.0 | 3.0 | 0.00 | 0.00 | 0.00 | 13 | |
| 20260902115242 | 60 | 184 | 9.0 | 14.0 | 0.00 | 0.00 | 0.00 | 13 | |
| 20260902114837 | 60 | 184 | 8.0 | 9.0 | 0.00 | 0.00 | 0.00 | 14 | |
| 20260902114745 | 0 | 184 | 8.0 | 9.0 | 0.00 | 0.00 | 0.00 | 14 | |
| 20260902114244 | 60 | 177 | 2.0 | 0.0 | 0.00 | 0.00 | 0.00 | 15 | |
| 20260902113746 | 60 | 166 | 2.0 | 13.0 | 0.00 | 0.00 | 0.00 | 15 | |
| 20260902113248 | 60 | 193 | 7.0 | 0.0 | 0.00 | 0.00 | 0.00 | 14 | |
| 20260902112750 | 60 | 118 | 1.0 | 2.0 | 0.00 | 0.00 | 0.00 | 14 | |
| 20260902112253 | 60 | 174 | 0.0 | 0.0 | 0.00 | 0.00 | 0.00 | 12 | |
| 20260902111755 | 59 | 260 | 1.0 | 0.0 | 0.00 | 0.00 | 0.00 | 12 | |
| 20260902111254 | 58 | 150 | 4.0 | 3.0 | 0.00 | 0.00 | 0.00 | 13 | |
| 20260902110756 | 58 | 172 | 1.0 | 2.0 | 0.00 | 0.00 | 0.00 | 15 | |
| 20260902110300 | 57 | 218 | 2.0 | 0.0 | 0.00 | 0.00 | 0.00 | 17 | |
| 20260902105801 | 57 | 153 | 0.0 | 0.0 | 0.00 | 0.00 | 0.00 | 20 | |
| 20260902105306 | 57 | 153 | 1.0 | 0.0 | 0.00 | 0.00 | 0.00 | 21 |